TimeMDT,TemperatureF,Dew PointF,Humidity,Sea Level PressureIn,VisibilityMPH,Wind Direction,Wind SpeedMPH,Gust SpeedMPH,PrecipitationIn,Events,Conditions,WindDirDegrees,DateUTC
12:53 AM,54.0,33.1,45,29.73,10.0,Calm,Calm,-,N/A,,Partly Cloudy,0,2014-06-28 06:53:00
1:53 AM,51.1,34.0,52,29.74,10.0,Calm,Calm,-,N/A,,Clear,0,2014-06-28 07:53:00
2:53 AM,51.1,35.1,54,29.74,10.0,NW,6.9,-,N/A,,Clear,320,2014-06-28 08:53:00
3:53 AM,46.9,33.1,59,29.78,10.0,Calm,Calm,-,N/A,,Clear,0,2014-06-28 09:53:00
4:53 AM,46.0,33.1,61,29.81,10.0,SE,3.5,-,N/A,,Clear,130,2014-06-28 10:53:00
5:53 AM,44.1,32.0,63,29.83,10.0,NNE,3.5,-,N/A,,Clear,30,2014-06-28 11:53:00
6:53 AM,51.1,35.1,54,29.83,10.0,Calm,Calm,-,N/A,,Clear,0,2014-06-28 12:53:00
7:53 AM,57.9,35.1,42,29.84,10.0,Calm,Calm,-,N/A,,Clear,0,2014-06-28 13:53:00
8:53 AM,66.0,34.0,30,29.84,10.0,Calm,Calm,-,N/A,,Clear,0,2014-06-28 14:53:00
9:53 AM,70.0,23.0,17,29.85,10.0,Calm,Calm,-,N/A,,Clear,0,2014-06-28 15:53:00
10:53 AM,73.9,21.9,14,29.83,10.0,West,6.9,-,N/A,,Clear,270,2014-06-28 16:53:00
11:36 AM,78.1,21.0,12,30.08,10.0,West,28.8,36.8,N/A,,Clear,280,2014-06-28 17:36:00
11:53 AM,79.0,23.0,13,29.84,10.0,West,26.5,36.8,N/A,,Clear,280,2014-06-28 17:53:00
12:53 PM,80.1,21.0,11,29.84,10.0,West,24.2,31.1,N/A,,Clear,270,2014-06-28 18:53:00
1:53 PM,82.0,18.0,9,29.84,10.0,West,17.3,33.4,N/A,,Clear,280,2014-06-28 19:53:00
2:53 PM,84.0,21.0,10,29.83,10.0,West,18.4,28.8,N/A,,Clear,280,2014-06-28 20:53:00
3:53 PM,84.0,21.9,10,29.84,10.0,West,21.9,28.8,N/A,,Clear,280,2014-06-28 21:53:00
4:53 PM,82.9,23.0,11,29.84,10.0,WNW,12.7,23.0,N/A,,Clear,290,2014-06-28 22:53:00
5:53 PM,82.0,23.0,11,29.85,10.0,WNW,13.8,26.5,N/A,,Clear,290,2014-06-28 23:53:00
6:53 PM,81.0,23.0,12,29.83,10.0,West,15.0,-,N/A,,Clear,270,2014-06-29 00:53:00
7:53 PM,78.1,26.1,15,29.83,10.0,West,13.8,-,N/A,,Clear,270,2014-06-29 01:53:00
8:53 PM,73.9,26.1,17,29.83,10.0,West,9.2,-,N/A,,Clear,280,2014-06-29 02:53:00
9:53 PM,70.0,25.0,18,29.86,10.0,WSW,5.8,-,N/A,,Clear,240,2014-06-29 03:53:00
10:53 PM,64.0,28.0,26,29.88,10.0,North,4.6,-,N/A,,Clear,350,2014-06-29 04:53:00
11:53 PM,57.9,30.0,35,29.88,10.0,Variable,3.5,-,N/A,,Clear,0,2014-06-29 05:53:00